Vertical_Velocity
4 3 1 0 -1 0 1 0 2 -1 0 -1 -1 -1 -1 -1 1 -1 0 1 -2 -1 0 1 1 -1 -1 -1 -0 1 -0 0 -1 -1 0 -1 0 1 -0 0 1 -0 -1
1 1 -1 -1 0 0 4 -0 -2 -0 0 0 -1 -1 -1 -0 -1 -1 0 -2 -1 1 0 -2 -2 -2 -2 -2 -0 0 -1 -1 2 2 3 2 2 0 -1 -0 -1 -3 -3
-0 0 -4 -0 2 -1 3 -4 1 -1 1 -1 -0 -1 -0 -1 -2 0 -1 -1 -0 -2 -1 -2 -2 -3 -3 -2 -2 -2 -3 -3 -3 -3 -1 0 -1 1 0 -1 0 -0 -2
-0 1 -1 -2 -2 4 -3 -3 -1 1 0 -0 -1 -2 -1 -1 0 -0 1 0 -1 -1 -1 -1 -0 0 0 1 1 1 2 3 2 1 -0 -0 -0 -1 -1 0 2 -0 -1
-1 -2 0 1 4 1 -1 -1 -0 1 0 -1 -0 -1 -1 0 -0 -0 0 -0 1 1 0 -1 -3 -2 -3 -3 -2 -2 -2 -2 -1 0 1 1 1 1 2 -1 4 4 -2
-0 0 -1 -0 -0 -1 -2 1 1 1 -0 -0 -0 -1 -1 0 -1 -1 -0 1 -0 -2 -1 -1 -1 -1 0 0 -0 -0 -0 0 1 1 1 1 0 -0 1 -1 0 1 -2
1 -1 -2 -2 0 -1 0 -0 1 1 -1 -1 -1 -0 0 -1 -1 -1 -1 -2 -1 0 1 1 2 2 1 -0 -1 -0 0 1 0 0 0 0 0 1 1 1 1 1 -1
-2 -2 -1 -0 -1 -0 -0 0 -0 0 -0 0 0 -0 0 1 1 1 0 -0 -0 2 2 0 -0 1 1 1 1 -0 -0 -1 -1 -1 -1 -0 -0 -1 -1 -1 1 -2 -0
1 1 0 -1 -1 -1 0 -1 -0 -0 -1 1 2 2 2 1 0 1 1 1 1 1 1 0 1 2 0 -0 -0 1 1 -0 0 0 1 -1 -3 -3 -3 -1 -0 0 -1
1 1 -0 0 -0 -1 -1 -2 -0 -1 2 2 2 1 2 2 3 1 -1 -1 1 -0 -1 0 1 1 0 -1 -3 -3 -2 -2 1 1 2 4 4 4 2 1 2 1 4
-0 -0 -0 -1 -1 -1 -1 -0 0 -0 1 2 1 -1 -0 -1 -1 -2 0 -0 -0 2 0 -0 -1 -1 1 3 2 3 2 -2 1 1 -2 -1 -2 0 0 -1 -1 -0 -1
0 0 0 -0 -1 -1 -1 -1 -0 -1 -2 -2 -2 -0 0 1 -1 -0 1 2 -1 1 -1 1 1 1 -0 0 -3 -1 2 -0 1 6 -0 3 3 1 -1 -2 -1 -1 2
1 0 -1 -1 -1 -1 -1 -0 -0 -0 1 1 -2 -0 1 -1 -1 -2 -2 -1 -0 0 -0 -0 -1 0 1 2 3 2 2 1 1 2 -1 1 -1 -0 1 2 3 1 0
0 0 0 -0 -1 -1 -2 -1 1 -0 0 1 -0 0 0 -0 0 1 2 1 2 -0 1 0 -1 -1 1 -0 -1 -1 -1 -2 -2 0 -0 -0 2 -0 3 2 -0 0 1
0 -0 0 -1 -1 -0 1 2 0 -0 -1 -2 -0 -0 -1 -1 -1 -0 0 -1 -0 -1 -1 -3 -2 -2 -1 1 1 4 5 3 1 2 2 0 4 0 -1 -2 2 -1 -2
-1 -0 0 -0 -2 -4 -5 -3 -1 1 1 1 0 0 0 1 0 1 1 1 3 4 2 4 3 -0 1 3 2 3 2 4 0 -1 1 3 1 -1 -0 1 -3 2 4
2 1 -3 -5 -2 1 2 2 1 1 0 0 1 -1 -1 -0 -0 -1 -1 -0 -1 -1 2 2 2 0 -2 4 1 3 -2 1 1 0 -0 2 0 4 3 4 1 3 1
-4 -4 1 2 0 1 1 1 1 1 2 -0 -1 -1 -1 -0 0 -0 0 0 -2 -1 -1 -1 1 -3 -2 3 1 1 -1 -5 -5 -2 1 0 1 2 3 -2 0 -2 -1
2 0 -1 1 2 2 1 0 1 -0 -1 -2 -3 -4 -4 -5 -4 -3 -1 1 -3 -1 1 2 -1 -0 -4 4 0 2 0 -2 -3 -0 1 1 1 4 3 -0 -2 -0 -3
0 3 2 1 1 -1 1 2 -0 -1 0 1 0 -1 -3 -3 -3 -1 -0 -0 -0 -5 -2 -4 2 -0 -6 0 -1 1 -1 -6 0 -1 -2 1 -0 6 -4 -2 -1 -5 1
3 2 0 -0 1 1 0 1 0 -2 -4 -3 -1 1 3 -1 2 -4 -1 -4 -3 -3 -3 -3 -2 -1 4 -2 -1 1 -2 -2 -0 -2 -4 -0 3 2 3 0 2 -3 9
0 -0 0 2 2 -0 -1 0 -0 -0 -1 -4 -2 -0 0 1 0 -1 -0 0 0 -1 -2 -4 -4 -1 1 5 1 2 3 2 -3 -4 1 -0 -1 4 -2 -1 -2 2 4
-1 -0 -0 1 0 1 0 1 1 -5 -5 -3 -3 -3 -2 -1 2 -1 -3 -5 -2 -2 -2 -2 -4 -7 -3 1 2 2 2 2 -3 -3 1 -1 1 1 -1 -1 -1 3 3
2 1 1 1 2 1 1 1 -2 -3 -1 -3 -4 -5 -6 -6 -4 -1 -0 1 1 0 -1 -3 -4 -5 -5 -4 -1 7 0 1 0 1 -2 1 2 1 -1 -1 -1 1 1
1 0 -1 -0 1 -1 3 5 1 -2 -4 -4 -3 -4 -3 -4 -5 -2 -2 -2 3 4 1 0 2 -2 -3 -5 -2 3 6 6 3 4 -2 -1 -0 -1 0 -1 -3 -1 1
0 1 0 -2 -0 -1 -4 -2 -3 -1 -0 -2 -2 -2 -2 -1 -2 -5 -9 3 -1 5 4 3 10 3 -3 -3 0 2 1 5 9 3 -4 -3 -1 -1 0 1 1 2 2
Height
1532 1534 1536 1538 1539 1540 1540 1541 1542 1542 1541 1540 1538 1536 1535 1534 1533 1533 1532 1531 1530 1529 1528 1527 1526 1524 1523 1522 1521 1519 1518 1517 1515 1515 1514 1513 1512 1511 1510 1509 1508 1506 1505
1528 1531 1534 1535 1536 1539 1538 1540 1540 1540 1539 1538 1537 1535 1534 1533 1532 1532 1531 1530 1529 1528 1527 1526 1525 1523 1523 1522 1520 1519 1518 1517 1516 1514 1513 1513 1512 1510 1508 1507 1506 1505 1503
1526 1528 1530 1532 1534 1536 1537 1538 1538 1537 1537 1536 1534 1533 1532 1531 1531 1531 1530 1529 1528 1527 1527 1525 1524 1523 1522 1521 1520 1519 1517 1516 1515 1514 1514 1512 1510 1509 1506 1505 1504 1503 1501
1522 1525 1527 1529 1531 1534 1535 1536 1536 1535 1534 1533 1532 1531 1530 1529 1529 1529 1528 1527 1527 1526 1525 1524 1523 1522 1520 1519 1518 1517 1515 1514 1513 1512 1511 1510 1509 1507 1505 1503 1502 1502 1499
1519 1522 1524 1525 1529 1531 1533 1533 1533 1533 1532 1531 1529 1528 1527 1527 1526 1526 1526 1525 1525 1524 1523 1522 1521 1520 1518 1517 1516 1515 1514 1513 1512 1511 1509 1508 1507 1505 1504 1501 1501 1500 1498
1518 1520 1521 1523 1526 1528 1530 1530 1530 1530 1529 1528 1527 1526 1525 1524 1523 1523 1524 1523 1522 1522 1521 1520 1519 1518 1517 1515 1514 1513 1512 1511 1510 1509 1507 1506 1505 1503 1502 1500 1497 1496 1495
1517 1518 1520 1522 1524 1525 1527 1528 1527 1527 1526 1525 1524 1523 1522 1521 1521 1520 1520 1519 1519 1519 1519 1518 1517 1515 1514 1513 1512 1511 1510 1508 1507 1506 1505 1504 1503 1501 1499 1498 1495 1492 1490
1515 1518 1520 1521 1522 1524 1525 1525 1525 1525 1524 1523 1522 1520 1519 1518 1517 1517 1516 1516 1516 1516 1516 1515 1514 1513 1511 1510 1509 1508 1507 1505 1504 1503 1502 1501 1500 1499 1497 1495 1494 1490 1487
1517 1518 1519 1520 1521 1522 1522 1522 1522 1521 1521 1519 1518 1517 1516 1515 1514 1514 1513 1513 1513 1512 1512 1511 1510 1509 1508 1507 1506 1505 1504 1502 1501 1499 1498 1497 1495 1495 1494 1492 1490 1489 1487
1516 1517 1518 1519 1519 1520 1520 1519 1519 1518 1518 1516 1515 1514 1513 1511 1509 1509 1508 1508 1508 1508 1507 1507 1506 1505 1504 1503 1501 1500 1499 1497 1496 1495 1493 1492 1491 1490 1489 1488 1487 1485 1484
1515 1516 1517 1518 1518 1518 1517 1516 1515 1515 1514 1514 1512 1510 1509 1507 1506 1504 1504 1504 1503 1503 1502 1501 1500 1499 1499 1498 1496 1495 1495 1494 1493 1491 1490 1488 1487 1485 1484 1483 1482 1481 1480
1515 1516 1517 1517 1517 1517 1516 1514 1513 1512 1511 1510 1508 1507 1505 1504 1502 1500 1500 1499 1498 1497 1496 1495 1493 1493 1492 1492 1490 1490 1489 1488 1487 1486 1484 1483 1482 1481 1479 1478 1476 1475 1473
1514 1515 1516 1516 1516 1515 1513 1512 1511 1509 1507 1505 1504 1503 1501 1499 1498 1496 1494 1493 1492 1490 1489 1488 1486 1485 1485 1484 1483 1482 1481 1480 1480 1479 1478 1478 1477 1476 1475 1474 1472 1469 1469
1513 1514 1515 1514 1513 1512 1510 1509 1508 1506 1504 1503 1501 1500 1498 1496 1494 1492 1490 1488 1486 1483 1482 1481 1479 1478 1477 1476 1475 1474 1473 1471 1471 1471 1470 1469 1468 1468 1469 1466 1464 1465 1463
1512 1512 1512 1511 1510 1509 1508 1506 1505 1503 1501 1500 1498 1496 1494 1492 1490 1487 1485 1482 1480 1478 1475 1473 1471 1469 1467 1466 1465 1465 1464 1463 1463 1463 1463 1462 1462 1460 1460 1459 1458 1456 1455
1510 1509 1508 1507 1506 1506 1505 1503 1502 1500 1498 1496 1494 1492 1490 1488 1486 1483 1480 1477 1475 1472 1469 1467 1465 1463 1461 1460 1458 1456 1455 1455 1454 1453 1453 1453 1453 1452 1451 1450 1449 1449 1447
1506 1506 1505 1504 1504 1503 1503 1501 1498 1497 1496 1494 1492 1490 1488 1485 1482 1479 1476 1473 1470 1466 1463 1460 1457 1455 1453 1452 1450 1449 1446 1446 1445 1444 1443 1444 1444 1443 1442 1441 1441 1440 1439
1503 1502 1502 1502 1502 1500 1499 1498 1497 1496 1495 1493 1491 1489 1486 1483 1480 1477 1473 1470 1466 1462 1458 1455 1451 1447 1446 1444 1441 1439 1438 1436 1436 1436 1436 1434 1434 1435 1433 1432 1431 1430 1430
1499 1500 1500 1500 1499 1499 1498 1498 1497 1495 1493 1491 1488 1486 1482 1479 1476 1473 1469 1466 1461 1458 1454 1449 1446 1442 1439 1436 1433 1430 1428 1425 1424 1425 1426 1426 1426 1426 1425 1422 1422 1420 1420
1497 1498 1498 1498 1498 1498 1498 1496 1495 1492 1490 1487 1484 1482 1479 1475 1471 1467 1464 1460 1455 1451 1448 1444 1441 1436 1432 1430 1426 1423 1419 1417 1415 1415 1415 1415 1415 1416 1414 1413 1413 1411 1411
1496 1496 1497 1498 1498 1497 1495 1494 1491 1489 1486 1483 1480 1477 1473 1469 1465 1460 1457 1452 1448 1444 1441 1437 1435 1431 1427 1423 1419 1416 1411 1409 1407 1406 1405 1405 1407 1407 1405 1405 1404 1402 1405
1494 1495 1497 1497 1496 1494 1492 1490 1488 1486 1483 1479 1476 1472 1468 1463 1459 1454 1450 1445 1441 1436 1432 1428 1424 1422 1419 1415 1412 1408 1404 1401 1398 1396 1396 1396 1398 1398 1396 1396 1396 1396 1396
1493 1494 1494 1494 1493 1492 1489 1486 1483 1481 1478 1474 1469 1465 1461 1457 1453 1447 1442 1437 1433 1428 1423 1419 1413 1409 1409 1406 1404 1400 1397 1393 1389 1388 1387 1388 1389 1389 1388 1388 1388 1389 1388
1492 1492 1491 1490 1489 1488 1486 1483 1480 1476 1472 1467 1463 1459 1454 1449 1445 1440 1435 1429 1425 1420 1414 1410 1404 1398 1394 1394 1393 1390 1387 1384 1381 1378 1378 1379 1379 1379 1379 1379 1380 1380 1380
1490 1490 1488 1487 1486 1484 1482 1478 1474 1470 1465 1460 1456 1451 1446 1441 1436 1432 1427 1422 1418 1415 1407 1402 1396 1391 1384 1383 1380 1377 1375 1374 1372 1370 1369 1369 1369 1369 1369 1370 1370 1371 1372
1488 1487 1486 1484 1482 1480 1477 1473 1469 1464 1458 1452 1447 1443 1437 1433 1427 1421 1415 1415 1409 1404 1400 1394 1389 1382 1378 1373 1370 1366 1364 1363 1362 1359 1358 1358 1359 1360 1360 1361 1361 1361 1362